Location: Arrodets-la-Barthe
(43.0306°N, 0.2829°E)
Time: 18:24:17
(UTC+00:00)

STRAND 1 - Pass Details

Date: 05 April 2023
Orbit: 767 x 779 km, 98.4° (Epoch: 04 June)

Event Time Altitude Azimuth Distance (km) Brightness Sun altitude
Rises 04:10:26 0° 109° (ESE) 3,245 ? -15.6°
Reaches altitude 10° 04:14:12 10° 81° (E) 2,321 ? -14.9°
Maximum altitude 04:16:11 12° 58° (ENE) 2,165 ? -14.6°
Drops below altitude 10° 04:18:09 10° 35° (NE) 2,323 ? -14.3°
Sets 04:21:55 0° 6° (N) 3,253 ? -13.6°
